Tracking 19832 objects as of 25-Aug-2019
HD Live streaming from Space Station
objects crossing your sky now

TANSEI 3 DEB

Track TANSEI 3 DEB now!
10-day predictions


NORAD ID: 13133
Int'l Code: 1977-012J
Perigee: 807.4 km
Apogee: 3,658.4 km
Inclination: 65.8 °
Period: 132.4 minutes
Semi major axis: 8603 km
RCS: 0.0169 m2 (small)
Launch date: February 19, 1977
Source: Japan (JPN)
Launch site: KAGOSHIMA SPACE CENTER UNIVERSITY OF TOKYO (KSCUT)

Note: This is SATELLITE DEBRIS
aabbcc
Your satellite tracking list
Your tracking list is empty




NASA's NSSDC Master Catalog

Two Line Element Set (TLE):
1 13133U 77012J   19235.22192978 -.00000216  00000-0 -49784-3 0  9994
2 13133  65.8399 315.4491 1656777  21.9268 344.4860 10.87824812673609
Source of the keplerian elements: AFSPC